Fairmont, MN

9:16 PM CDT on April 24, 2017 (GMT -0500)
Fairmont Municipal

Weather History for KFRM - November, 2013

Change the Weather History Date:

Saturday, November 2, 2013

  Actual Average Record
Temperature  
Mean Temperature 43 °F -  
Max Temperature 51 °F 48 °F 76 °F (1978)
Min Temperature 35 °F 31 °F 9 °F (1951)
Degree Days  
Heating Degree Days 22    
Moisture  
Dew Point 32 °F    
Average Humidity 69    
Maximum Humidity 87    
Minimum Humidity 44    
Precipitation  
Precipitation 0.00 in - - ()
Sea Level Pressure  
Sea Level Pressure 30.03 in    
Wind  
Wind Speed 11 mph (NW)    
Max Wind Speed 15 mph    
Max Gust Speed 21 mph    
Visibility 10 miles    
Events      
Averages and records for this station are not official NWS values.
T = Trace of Precipitation, MM = Missing Value Source: NWS Daily Summary

Daily Weather History Graph

Daily Weather History Graph

Search for Another Location

Airport or City:

Trip Planner

Search our weather history database for the weather conditions in past years. The results will help you decide how hot, cold, wet, or windy it might be!

Date:

Astronomy

Nov. 02, 2013 Rise Set
Actual Time 7:55 AM CDT 6:06 PM CDT
Civil Twilight 7:25 AM CDT 6:36 PM CDT
Nautical Twilight 6:51 AM CDT 7:10 PM CDT
Astronomical Twilight 6:17 AM CDT 7:44 PM CDT
Moon 6:51 AM CDT (11/2) 5:39 PM CDT (11/2)
Length of Visible Light 11h 11m
Length of Day
10h 11m
Waning Crescent, 1% of the Moon is Illuminated
Nov 2
Waning Crescent
Nov 3
New
Nov 9
First Quarter
Nov 17
Full
Nov 25
Last Quarter

Hourly Weather History & Observations

Time (CDT) Temp. Windchill Dew Point Humidity Pressure Visibility Wind Dir Wind Speed Gust Speed Precip Events Conditions
12:15 AM 42.8 °F 35.8 °F 37.4 °F 81% 29.89 in 10.0 mi NW 13.8 mph - N/A   Mostly Cloudy
12:35 AM 42.8 °F 36.6 °F 37.4 °F 81% 29.90 in 10.0 mi NW 11.5 mph - N/A   Overcast
12:55 AM 41.0 °F 34.3 °F 37.4 °F 87% 29.90 in 10.0 mi NW 11.5 mph - N/A   Overcast
1:15 AM 42.8 °F 37.0 °F 37.4 °F 81% 29.91 in 10.0 mi NNW 10.4 mph - N/A   Overcast
1:35 AM 42.8 °F 36.6 °F 37.4 °F 81% 29.92 in 10.0 mi NW 11.5 mph - N/A   Overcast
1:55 AM 42.8 °F 36.6 °F 37.4 °F 81% 29.92 in 10.0 mi NW 11.5 mph - N/A   Overcast
2:15 AM 42.8 °F 36.2 °F 35.6 °F 76% 29.93 in 10.0 mi NW 12.7 mph - N/A   Overcast
2:35 AM 42.8 °F 35.8 °F 35.6 °F 76% 29.94 in 10.0 mi NW 13.8 mph - N/A   Overcast
2:55 AM 42.8 °F 36.2 °F 35.6 °F 76% 29.94 in 10.0 mi NW 12.7 mph - N/A   Overcast
3:15 AM 42.8 °F 35.4 °F 35.6 °F 76% 29.94 in 10.0 mi NW 15.0 mph 20.7 mph N/A   Overcast
3:35 AM 42.8 °F 35.8 °F 35.6 °F 76% 29.95 in 10.0 mi NW 13.8 mph - N/A   Overcast
3:55 AM 42.8 °F 36.2 °F 35.6 °F 76% 29.95 in 10.0 mi NW 12.7 mph - N/A   Overcast
4:15 AM 41.0 °F 33.1 °F 35.6 °F 81% 29.96 in 10.0 mi NW 15.0 mph - N/A   Overcast
4:35 AM 41.0 °F 33.9 °F 33.8 °F 76% 29.96 in 10.0 mi NW 12.7 mph - N/A   Mostly Cloudy
4:55 AM 39.2 °F 31.6 °F 33.8 °F 81% 29.97 in 10.0 mi NW 12.7 mph - N/A   Mostly Cloudy
5:15 AM 39.2 °F 31.6 °F 33.8 °F 81% 29.98 in 10.0 mi NW 12.7 mph - N/A   Partly Cloudy
5:35 AM 39.2 °F 31.6 °F 33.8 °F 81% 29.99 in 10.0 mi NW 12.7 mph - N/A   Clear
5:55 AM 37.4 °F 29.8 °F 33.8 °F 87% 29.99 in 10.0 mi NW 11.5 mph - N/A   Clear
6:15 AM 37.4 °F 29.8 °F 33.8 °F 87% 30.01 in 10.0 mi WNW 11.5 mph - N/A   Clear
6:35 AM 37.4 °F 30.3 °F 33.8 °F 87% 30.02 in 10.0 mi WNW 10.4 mph - N/A   Clear
6:55 AM 37.4 °F 30.8 °F 32.0 °F 81% 30.02 in 10.0 mi NW 9.2 mph - N/A   Clear
7:15 AM 35.6 °F 29.2 °F 30.2 °F 81% 30.02 in 10.0 mi NW 8.1 mph - N/A   Clear
7:35 AM 35.6 °F 28.6 °F 30.2 °F 81% 30.03 in 10.0 mi WNW 9.2 mph - N/A   Clear
7:55 AM 35.6 °F 28.6 °F 30.2 °F 81% 30.03 in 10.0 mi WNW 9.2 mph - N/A   Clear
8:15 AM 35.6 °F 28.0 °F 30.2 °F 81% 30.04 in 10.0 mi WNW 10.4 mph - N/A   Clear
8:35 AM 35.6 °F 27.5 °F 30.2 °F 81% 30.05 in 10.0 mi WNW 11.5 mph - N/A   Clear
8:55 AM 35.6 °F 28.0 °F 30.2 °F 81% 30.05 in 10.0 mi NW 10.4 mph - N/A   Clear
9:15 AM 37.4 °F 30.8 °F 32.0 °F 81% 30.06 in 10.0 mi NW 9.2 mph - N/A   Clear
9:35 AM 37.4 °F 29.8 °F 30.2 °F 75% 30.06 in 10.0 mi WNW 11.5 mph - N/A   Clear
9:55 AM 39.2 °F 32.5 °F 32.0 °F 75% 30.07 in 10.0 mi NW 10.4 mph - N/A   Clear
10:15 AM 41.0 °F 34.3 °F 33.8 °F 76% 30.07 in 10.0 mi NW 11.5 mph - N/A   Clear
10:35 AM 42.8 °F 36.6 °F 33.8 °F 70% 30.08 in 10.0 mi NW 11.5 mph - N/A   Clear
10:55 AM 42.8 °F 37.0 °F 33.8 °F 70% 30.08 in 10.0 mi NW 10.4 mph - N/A   Clear
11:15 AM 44.6 °F 39.7 °F 33.8 °F 66% 30.09 in 10.0 mi NW 9.2 mph - N/A   Partly Cloudy
11:35 AM 44.6 °F 38.4 °F 33.8 °F 66% 30.09 in 10.0 mi NW 12.7 mph - N/A   Partly Cloudy
11:55 AM 46.4 °F 41.9 °F 33.8 °F 62% 30.09 in 10.0 mi NNW 9.2 mph - N/A   Clear
12:15 PM 46.4 °F 41.1 °F 33.8 °F 62% 30.09 in 10.0 mi WNW 11.5 mph - N/A   Partly Cloudy
12:35 PM 48.2 °F - 33.8 °F 58% 30.09 in 10.0 mi WNW 13.8 mph - N/A   Partly Cloudy
12:55 PM 46.4 °F 41.9 °F 33.8 °F 62% 30.09 in 10.0 mi NW 9.2 mph - N/A   Mostly Cloudy
1:15 PM 50.0 °F - 33.8 °F 54% 30.08 in 10.0 mi NW 12.7 mph 18.4 mph N/A   Mostly Cloudy
1:35 PM 50.0 °F - 33.8 °F 54% 30.08 in 10.0 mi NW 10.4 mph - N/A   Mostly Cloudy
1:55 PM 51.8 °F - 33.8 °F 50% 30.07 in 10.0 mi NW 9.2 mph - N/A   Mostly Cloudy
2:15 PM 51.8 °F - 32.0 °F 47% 30.08 in 10.0 mi NW 9.2 mph 16.1 mph N/A   Mostly Cloudy
2:35 PM 51.8 °F - 30.2 °F 44% 30.07 in 10.0 mi NW 12.7 mph 18.4 mph N/A   Mostly Cloudy
2:55 PM 51.8 °F - 30.2 °F 44% 30.07 in 10.0 mi NNW 12.7 mph - N/A   Mostly Cloudy
3:15 PM 51.8 °F - 30.2 °F 44% 30.07 in 10.0 mi NW 6.9 mph - N/A   Overcast
3:35 PM 51.8 °F - 30.2 °F 44% 30.07 in 10.0 mi NW 10.4 mph - N/A   Mostly Cloudy
3:55 PM 50.0 °F - 30.2 °F 47% 30.07 in 10.0 mi WNW 9.2 mph - N/A   Mostly Cloudy
4:15 PM 51.8 °F - 32.0 °F 47% 30.06 in 10.0 mi NW 8.1 mph - N/A   Mostly Cloudy
4:35 PM 51.8 °F - 30.2 °F 44% 30.07 in 10.0 mi NW 9.2 mph - N/A   Scattered Clouds
4:55 PM 51.8 °F - 30.2 °F 44% 30.07 in 10.0 mi WNW 5.8 mph - N/A   Clear
5:15 PM 50.0 °F - 32.0 °F 50% 30.07 in 10.0 mi NW 4.6 mph - N/A   Clear
5:35 PM 51.8 °F - 32.0 °F 47% 30.06 in 9.0 mi Calm Calm - N/A   Clear
5:55 PM 48.2 °F - 30.2 °F 50% 30.06 in 10.0 mi NNE 3.5 mph - N/A   Clear
6:15 PM 46.4 °F 44.3 °F 30.2 °F 53% 30.06 in 10.0 mi ENE 4.6 mph - N/A   Clear
6:35 PM 42.8 °F 41.1 °F 30.2 °F 61% 30.06 in 10.0 mi East 3.5 mph - N/A   Clear
6:55 PM 42.8 °F 40.1 °F 30.2 °F 61% 30.06 in 10.0 mi SE 4.6 mph - N/A   Clear
7:15 PM 39.2 °F 37.0 °F 30.2 °F 70% 30.06 in 10.0 mi ESE 3.5 mph - N/A   Clear
7:35 PM 39.2 °F 35.0 °F 30.2 °F 70% 30.07 in 10.0 mi ESE 5.8 mph - N/A   Clear
7:55 PM 39.2 °F 35.9 °F 30.2 °F 70% 30.08 in 10.0 mi SE 4.6 mph - N/A   Clear
8:15 PM 37.4 °F 34.9 °F 28.4 °F 70% 30.08 in 10.0 mi SSE 3.5 mph - N/A   Clear
8:35 PM 37.4 °F 34.9 °F 30.2 °F 75% 30.07 in 10.0 mi SE 3.5 mph - N/A   Clear
8:55 PM 37.4 °F 32.8 °F 28.4 °F 70% 30.07 in 10.0 mi SE 5.8 mph - N/A   Clear
9:15 PM 37.4 °F 31.4 °F 28.4 °F 70% 30.07 in 10.0 mi SE 8.1 mph - N/A   Clear
9:35 PM 37.4 °F 31.4 °F 30.2 °F 75% 30.07 in 10.0 mi SSE 8.1 mph - N/A   Clear
9:55 PM 35.6 °F 30.7 °F 28.4 °F 75% 30.07 in 10.0 mi SSE 5.8 mph - N/A   Clear
10:15 PM 35.6 °F 29.9 °F 28.4 °F 75% 30.08 in 10.0 mi SSE 6.9 mph - N/A   Clear
10:35 PM 35.6 °F 29.9 °F 28.4 °F 75% 30.08 in 10.0 mi SSE 6.9 mph - N/A   Clear
10:55 PM 37.4 °F 31.4 °F 28.4 °F 70% 30.07 in 10.0 mi SSE 8.1 mph - N/A   Clear
11:15 PM 37.4 °F 32.1 °F 30.2 °F 75% 30.07 in 10.0 mi SSE 6.9 mph - N/A   Clear
11:35 PM 39.2 °F 33.6 °F 30.2 °F 70% 30.07 in 10.0 mi SSE 8.1 mph - N/A   Clear
11:55 PM 39.2 °F 32.5 °F 30.2 °F 70% 30.07 in 10.0 mi SSE 10.4 mph - N/A   Clear